Simultaneous Nadir Overpasses (SNOs) Predictions

Prediction of SNOs between AQUA and NOAA-19 Satellite Orbit:

Table of predicted SNOs for the next 14.0 days since TLE Epoch: 6/2/2017
Index Date (AQUA) Time (AQUA) Lat,Lon (AQUA) SZA (AQUA ) Date (NOAA-19) Time (NOAA-19) Lat,Lon (NOAA-19) SZA (NOAA-19 ) Distance(km) Time Diff (sec)
1 06/04/2017 15:21:14 -80.97, 89.13 119.30 06/04/2017 15:21:08 -80.96, 89.29 119.32 3.15 6
2 06/06/2017 20:54:57 80.94,-174.00 60.43 06/06/2017 20:54:54 80.96,-174.04 60.45 1.49 3
3 06/09/2017 02:28:40 -80.95, -77.54 119.74 06/09/2017 02:28:46 -80.96, -77.46 119.75 1.33 6
4 06/11/2017 08:02:24 80.97, 18.85 60.14 06/11/2017 08:02:34 80.96, 18.75 60.14 2.18 10
5 06/13/2017 13:36:06 -80.95, 115.67 120.03 06/13/2017 13:36:24 -80.96, 115.64 120.03 1.07 18
6 06/15/2017 18:20:23 -80.96, 44.40 120.08 06/15/2017 18:19:14 -80.96, 44.21 120.03 3.28 69




NCC Satellite Simultaneous Nadir Overpasses (SNOs) Prediction Service
